Location: Newark
(25.6108°S, 54.5803°W)
Time: 08:11:22
(UTC+00:00)

Tiros 1 - Pass Details

Date: 04 November 2020
Orbit: 630 x 664 km, 48.4° (Epoch: 29 November)

Event Time Altitude Azimuth Distance (km) Brightness Sun altitude
Rises 15:42:23 0° 289° (WNW) 2,951 10.6 78.9°
Reaches altitude 10° 15:44:57 10° 278° (W) 2,053 10.0 78.7°
Maximum altitude 15:49:05 29° 217° (SW) 1,198 8.9 78.2°
Drops below altitude 10° 15:53:18 10° 156° (SSE) 2,085 9.8 77.6°
Sets 15:55:56 0° 145° (SE) 3,006 10.4 77.3°
